GFSNW_sfc_30mbdewp_114.txt.gz
Dewpoint
37 36 38 38 39 40 35 29 25 37 39 23 23 16 20 24 21 23 23 23 22 21 21 19 17 21 20 20 20 22 31 28 23 20 27 24 5 10 10 6 3 3 3 3
35 37 39 38 40 39 33 25 24 35 35 19 16 21 22 23 19 18 23 22 24 24 20 19 16 16 18 20 22 26 27 26 17 17 24 32 28 8 13 14 8 6 5 5
37 38 38 38 40 39 33 27 23 26 33 28 22 24 20 17 17 18 23 22 24 20 18 18 16 17 19 21 21 26 25 28 25 20 25 28 28 30 25 9 10 9 6 8
37 38 38 38 39 39 32 29 23 25 24 26 22 22 19 17 16 17 17 21 19 19 19 17 13 17 19 19 20 22 23 19 25 24 24 18 26 30 31 25 13 10 8 6
36 39 38 39 40 38 32 27 23 25 20 24 23 21 16 14 16 17 15 18 18 17 19 19 18 19 19 19 20 22 24 19 21 17 23 20 18 27 26 27 27 18 16 10
37 38 39 39 40 37 30 32 31 25 21 19 18 15 13 15 18 16 20 21 16 17 19 22 22 24 25 24 24 25 25 20 16 14 16 22 20 26 24 23 25 27 23 22
39 37 39 39 39 37 32 28 29 23 16 15 15 16 17 17 17 16 17 18 17 18 23 24 25 23 24 26 25 27 26 22 17 15 14 16 20 27 25 24 25 29 27 33
38 38 39 39 39 37 31 33 29 23 18 14 15 17 18 16 17 17 17 17 22 24 26 22 18 13 14 15 21 23 27 24 17 14 14 10 24 21 27 27 27 34 30 37
38 39 39 39 39 39 33 32 34 27 20 15 16 15 16 15 14 16 18 22 23 29 24 23 17 11 14 12 15 24 25 27 22 14 11 10 20 20 23 29 30 36 36 38
39 39 39 39 38 39 35 31 35 28 23 19 22 18 16 21 19 16 17 22 19 28 24 19 16 19 18 17 17 17 20 22 19 16 12 10 23 26 28 26 30 38 40 39
39 38 38 38 38 39 37 33 36 31 26 21 24 23 19 18 17 15 19 18 25 21 21 19 16 17 16 20 20 22 23 21 20 19 16 12 26 27 28 31 36 41 40 39
39 37 38 38 38 38 37 32 35 36 32 25 30 29 26 23 22 21 23 20 22 22 21 17 18 17 18 17 18 27 23 27 25 22 18 24 30 35 39 39 38 40 38 39
38 38 38 37 38 38 37 34 37 37 31 29 27 25 27 30 29 26 23 24 24 30 32 29 24 21 20 16 16 23 25 26 28 29 33 32 33 36 37 37 39 41 40 38
38 37 37 37 37 38 38 34 36 33 32 26 20 27 27 28 30 30 28 24 29 30 31 26 21 19 20 19 20 24 28 30 27 28 30 31 31 32 35 36 35 33 33 32
38 37 37 35 35 37 39 37 37 33 27 24 22 25 25 27 28 30 30 29 26 24 27 23 21 19 21 22 26 27 31 27 24 24 28 29 28 31 33 31 31 33 31 30
37 37 36 36 37 38 37 32 35 37 33 28 21 25 26 30 30 29 30 29 28 28 26 23 24 24 23 24 20 31 32 31 30 26 31 30 31 31 32 30 30 30 30 31
36 37 36 36 38 37 30 28 35 36 35 30 23 22 28 31 31 30 30 31 33 30 26 26 24 23 28 22 17 22 28 30 30 30 31 29 27 27 30 32 31 31 28 28
36 36 36 37 37 37 34 39 40 38 32 31 24 22 25 32 29 28 31 29 31 30 27 29 25 24 26 20 25 26 26 30 26 26 25 26 28 29 28 29 32 29 26 25
36 36 36 37 36 33 30 37 37 38 33 26 25 20 20 32 31 31 31 29 26 28 26 25 26 22 20 25 26 24 23 22 21 25 21 20 19 21 22 24 25 25 24 24
35 35 32 27 33 37 38 36 32 32 32 31 25 23 22 29 30 30 30 30 25 24 24 26 26 20 25 24 24 23 22 19 19 20 19 17 16 17 18 19 21 23 23 23
32 30 28 34 38 34 32 28 27 28 25 28 25 23 22 29 26 26 32 28 29 22 23 23 21 22 21 22 21 22 19 18 16 16 16 15 15 15 16 17 18 18 20 21
31 33 37 36 33 30 26 25 26 24 19 26 25 25 26 27 31 28 30 26 27 20 26 24 21 19 20 20 19 18 17 15 14 13 13 13 12 13 15 16 16 17 18 19
36 34 30 29 29 24 21 18 22 22 25 27 27 26 28 29 32 30 29 25 24 28 25 22 18 19 21 20 19 17 15 13 12 11 11 12 12 12 13 13 14 16 16 16
29 27 24 25 22 22 22 20 23 29 29 29 29 27 28 30 29 30 25 28 28 23 20 17 19 20 19 18 19 17 16 14 13 12 11 11 11 11 12 12 13 13 13 14
27 28 21 24 26 27 28 29 28 29 31 30 29 30 29 29 27 29 27 25 20 18 17 17 21 19 18 18 17 16 15 14 13 12 11 10 10 10 10 11 12 12 12 12
25 21 23 25 25 25 26 28 26 26 28 32 31 28 27 26 27 24 21 20 18 17 18 18 18 18 18 17 17 16 15 14 13 12 11 10 9 9 10 10 10 10 11 11
20 20 20 22 24 24 23 23 23 24 27 28 29 25 24 25 22 18 17 18 17 18 19 18 18 17 16 16 17 16 16 14 13 12 11 10 10 10 10 10 10 11 10 10

GFSNW_sfc_30mbdewp_117.txt.gz
Dewpoint
38 37 37 38 38 40 36 26 24 34 36 23 18 13 14 20 16 20 18 19 17 15 16 14 12 13 13 14 16 16 29 26 20 19 26 30 24 2 -0 -1 1 -2 -4 -2
38 37 37 39 39 39 29 22 24 33 33 24 13 18 15 16 16 15 16 16 17 19 16 11 12 12 12 16 16 17 23 21 18 13 24 27 25 14 3 3 1 -3 -2 -0
37 37 39 38 39 40 35 23 24 25 28 24 23 20 15 14 16 15 15 16 17 16 13 13 12 11 12 16 16 23 24 22 22 19 24 23 27 27 15 10 10 1 1 -0
37 39 38 38 40 40 34 28 25 23 24 25 18 19 15 14 13 15 17 12 15 15 12 11 10 11 14 14 19 18 20 19 19 16 14 19 23 29 21 21 23 13 10 5
38 39 39 38 40 40 31 29 20 23 19 21 20 20 13 12 11 14 12 12 11 13 13 12 12 15 16 15 18 19 23 19 17 13 19 20 25 31 29 20 16 14 12 14
38 39 40 40 41 38 26 27 26 22 18 19 18 16 15 12 12 14 13 13 14 14 13 16 20 20 19 20 21 22 24 22 19 11 14 23 26 27 27 29 30 20 19 18
39 39 40 40 41 39 28 26 23 21 19 13 13 13 14 12 14 15 15 15 14 14 17 20 19 18 17 17 18 22 23 23 18 13 16 19 26 22 30 27 26 30 31 35
38 39 40 40 40 40 33 28 25 21 19 12 12 14 15 15 16 15 15 15 16 21 20 19 14 9 9 14 17 17 23 24 20 13 12 19 23 21 20 22 26 34 31 34
40 40 39 39 39 39 33 30 28 24 22 15 12 13 14 13 11 11 14 18 21 22 21 18 14 8 13 9 12 20 22 26 22 15 10 13 19 21 22 24 27 35 38 39
40 40 39 39 39 39 34 31 33 27 24 20 18 14 14 15 14 13 13 16 18 22 21 17 13 12 16 15 15 16 18 21 19 15 16 11 23 25 28 26 29 37 37 39
41 39 39 39 39 39 36 34 34 28 25 21 21 20 19 16 16 12 17 17 22 19 18 16 16 14 14 15 18 21 19 22 24 19 15 15 32 28 29 34 37 37 39 39
40 39 40 39 39 39 38 35 34 31 32 28 31 27 24 21 19 21 22 19 20 21 20 22 19 19 17 17 17 27 23 25 24 24 23 33 34 33 37 36 37 37 41 41
39 40 39 39 38 39 38 34 34 34 30 26 23 21 24 27 25 24 20 20 21 23 30 26 23 20 16 18 19 22 22 29 26 23 28 30 31 32 34 36 35 36 36 37
39 39 39 39 39 39 39 37 35 30 28 24 22 23 23 26 26 28 26 23 27 26 29 25 22 19 17 19 18 18 27 31 26 23 26 28 28 30 31 33 33 35 34 31
38 39 39 39 38 39 39 37 36 31 26 26 23 24 22 24 26 26 27 26 25 24 24 25 21 18 17 17 19 24 31 28 24 23 29 28 29 31 32 30 30 31 33 32
38 38 38 38 38 39 37 33 36 35 31 26 21 25 24 26 27 26 27 26 26 28 26 24 23 22 21 20 20 31 32 32 30 28 30 31 31 33 32 31 30 31 31 31
38 38 37 37 38 37 32 29 35 33 33 29 22 22 26 26 27 28 28 29 32 30 29 25 22 21 27 24 20 28 29 30 31 31 29 30 28 27 30 32 34 34 32 29
37 38 37 38 38 35 32 38 38 35 31 29 23 20 26 30 28 28 31 30 32 32 27 24 23 22 23 18 24 25 26 29 26 26 24 25 25 25 27 28 29 30 26 26
37 37 36 36 35 33 30 38 38 39 34 25 24 22 22 30 30 34 31 30 26 25 27 23 23 21 18 26 27 24 23 23 21 23 24 20 20 19 20 22 25 26 24 24
36 36 33 29 32 37 36 35 31 32 33 29 24 23 23 28 29 29 30 30 26 25 24 23 25 20 26 24 24 24 22 20 19 20 19 17 17 16 18 18 20 22 24 23
33 31 28 32 37 32 30 28 26 26 25 25 23 20 22 26 25 26 30 27 29 23 23 23 22 22 23 23 22 21 20 18 16 16 15 14 14 14 16 17 18 19 20 20
29 32 34 33 28 29 25 23 23 24 16 24 24 25 24 25 27 28 28 25 24 19 25 23 20 21 20 20 20 18 17 15 14 13 13 13 12 13 15 16 17 18 18 19
34 29 30 29 28 22 20 19 19 19 23 28 27 26 27 28 29 30 29 24 22 27 25 23 20 20 21 21 19 18 16 14 13 12 12 13 13 13 13 14 15 16 17 17
23 25 22 25 23 25 20 16 19 29 29 28 28 27 27 28 29 28 26 28 29 24 22 20 21 23 22 19 18 18 16 16 14 14 12 12 12 12 13 13 14 14 14 15
28 28 23 24 29 30 30 32 30 31 31 30 29 28 27 27 27 30 26 25 22 21 19 20 22 22 19 19 18 17 16 15 15 14 12 12 12 12 12 12 13 13 13 13
27 26 25 27 26 26 28 29 28 30 32 32 30 28 26 25 26 24 23 21 20 20 21 20 19 19 19 19 18 17 16 16 15 14 13 12 11 11 12 12 12 12 12 13
23 22 24 25 27 27 26 28 27 28 30 28 27 25 25 27 22 21 21 21 21 20 21 21 20 18 17 17 17 17 17 15 14 13 12 12 12 12 12 12 12 13 12 13

GFSNW_sfc_30mbdewp_123.txt.gz
Dewpoint
38 41 39 38 37 38 35 35 29 37 37 31 31 25 21 14 15 16 14 15 15 13 14 13 12 11 11 18 17 15 20 18 15 13 15 18 23 19 26 23 22 21 9 5
41 40 38 38 37 39 37 30 34 36 36 24 26 22 16 12 9 15 14 15 15 14 13 12 14 11 13 11 15 16 17 16 17 13 13 21 20 20 17 27 28 20 14 8
39 38 38 38 38 40 37 35 26 29 27 26 25 25 17 13 13 13 13 12 12 13 13 14 14 14 12 15 16 19 21 21 22 18 18 20 20 19 18 24 26 19 14 18
40 40 39 38 38 40 36 35 28 28 25 26 26 23 18 15 15 13 12 13 12 13 12 12 13 13 13 14 16 17 17 15 17 20 21 20 19 19 30 29 29 23 23 25
40 40 39 39 38 40 36 27 27 27 21 25 25 24 18 17 13 13 13 13 12 13 11 13 12 14 15 16 16 17 17 16 19 20 21 20 18 30 31 32 31 31 31 27
40 40 40 41 39 39 31 30 27 27 25 18 21 21 18 14 13 14 13 13 11 12 14 16 18 19 19 18 17 17 17 16 18 18 21 20 24 29 29 31 31 31 28 34
41 40 41 41 40 40 35 35 32 23 19 21 18 17 16 17 14 13 15 17 15 16 20 20 20 20 19 18 17 18 17 17 19 19 20 14 27 25 26 30 31 32 31 34
41 40 42 41 41 40 38 35 34 28 22 20 18 14 15 14 15 14 14 15 16 21 20 19 17 15 15 14 24 27 29 27 23 19 20 18 25 24 27 27 29 33 30 32
41 41 42 42 42 40 40 36 37 30 25 22 22 18 14 14 14 15 17 19 21 20 20 19 16 14 14 14 18 24 22 28 22 21 20 18 23 28 29 25 25 33 31 32
41 41 41 42 42 40 39 35 36 32 27 24 24 19 19 20 16 13 16 21 19 21 19 19 17 16 17 17 18 19 20 22 21 20 19 24 27 29 28 18 22 32 31 34
42 41 40 40 42 40 38 34 37 33 30 28 30 31 27 24 20 18 24 21 25 21 19 19 18 18 20 18 21 23 24 22 20 22 19 14 29 26 22 27 32 32 31 34
42 40 40 39 41 40 39 34 37 37 32 31 32 31 30 30 28 25 24 24 23 22 20 25 23 21 19 17 14 25 21 26 22 24 24 30 30 29 31 31 30 31 32 33
42 42 41 40 41 39 38 35 37 35 31 29 28 26 26 29 27 27 24 24 27 27 30 27 24 20 21 17 18 21 22 27 25 25 28 29 29 29 30 32 30 32 33 35
42 42 41 41 41 39 38 36 38 36 31 25 24 29 26 26 26 23 26 26 25 28 29 26 24 22 22 18 18 16 25 27 24 25 25 26 30 29 29 31 32 31 33 33
42 42 41 41 41 39 39 38 38 38 32 27 26 27 25 27 26 25 24 24 25 24 25 25 22 22 22 23 23 19 29 22 20 19 28 28 28 31 30 29 31 31 31 31
42 41 39 40 40 39 35 31 36 39 37 30 23 26 25 26 24 23 26 26 26 26 27 25 25 23 21 20 19 29 32 32 31 28 29 29 30 30 29 30 30 33 32 31
43 40 40 40 39 38 33 30 36 39 36 28 24 22 27 26 26 25 26 27 29 28 27 26 24 23 24 24 21 28 31 31 31 32 32 27 26 23 28 28 31 32 29 30
41 40 39 38 39 37 35 36 38 38 33 30 24 22 26 30 28 27 32 29 30 30 28 27 24 25 24 21 27 29 29 29 28 24 26 25 25 23 24 24 25 26 26 26
40 40 38 37 35 33 36 38 38 38 33 26 25 21 22 30 29 31 29 28 25 28 27 24 25 23 21 24 25 24 23 23 20 21 20 19 18 18 19 22 22 22 22 22
40 35 32 28 33 38 36 33 30 30 30 30 24 25 24 32 29 28 27 30 26 22 26 27 24 24 27 25 24 23 21 18 18 17 16 15 15 16 18 19 19 20 20 20
35 30 29 33 37 33 31 27 26 25 24 25 26 23 24 35 28 26 28 26 26 23 24 24 25 23 25 24 22 20 18 16 15 15 15 14 14 15 17 17 17 18 17 18
33 35 35 35 29 28 24 21 23 23 18 21 22 22 23 31 34 26 28 24 25 21 28 26 20 23 25 21 18 17 17 15 14 14 14 14 14 14 16 16 16 18 16 17
32 30 30 27 25 21 18 17 19 19 22 25 26 25 27 27 29 26 27 23 22 28 24 21 20 24 23 20 19 18 17 16 14 13 14 15 14 14 14 16 16 17 17 16
26 24 20 22 19 20 18 16 16 21 23 28 29 27 28 28 27 26 23 25 27 22 21 17 21 23 23 23 21 19 16 16 15 14 13 14 16 14 14 14 16 16 15 16
25 25 18 20 26 29 31 31 26 30 29 30 28 26 28 27 24 25 24 24 22 21 18 20 22 23 23 22 20 18 17 17 15 13 11 10 12 14 12 13 12 14 14 12
27 26 23 27 27 28 30 30 30 31 33 31 30 26 22 23 24 23 21 22 18 19 21 22 22 21 21 19 18 16 18 17 14 15 15 13 13 12 13 12 14 11 13 11
26 25 27 26 27 26 27 28 28 30 31 26 26 23 22 27 23 23 22 19 21 21 21 22 20 18 18 16 16 16 17 16 15 13 13 13 13 13 15 13 11 14 12 15

GFSNW_sfc_30mbdewp_129.txt.gz
Dewpoint
43 43 42 40 38 39 38 36 30 38 39 32 31 25 28 14 15 17 16 16 13 13 15 12 12 13 11 16 17 14 17 16 12 10 13 19 18 13 18 21 17 19 21 18
43 42 41 39 39 38 35 34 34 37 36 20 26 27 15 16 17 15 16 16 17 16 14 11 13 13 17 15 14 15 17 14 9 6 8 12 13 14 18 29 28 22 21 18
41 41 39 40 39 39 37 32 26 27 31 30 26 23 13 12 17 14 16 14 14 13 12 13 15 15 17 17 15 21 21 17 9 6 7 14 15 14 22 28 22 22 21 23
40 38 38 38 38 40 36 33 27 22 18 24 26 24 17 13 12 13 13 11 12 12 10 12 13 14 14 15 18 17 15 7 17 17 16 14 14 18 26 26 27 22 23 24
40 39 38 38 40 39 34 29 28 29 24 24 25 23 20 15 16 12 12 14 14 14 13 12 12 14 14 13 15 15 16 5 15 13 16 16 17 26 24 27 28 23 22 22
39 38 38 38 40 36 31 32 30 25 25 23 20 22 18 17 15 18 16 15 13 14 15 16 16 17 16 14 15 14 14 16 15 15 16 18 22 23 21 24 27 26 21 27
40 38 40 38 39 38 35 35 29 24 20 22 20 22 19 16 16 15 17 15 13 18 20 19 19 20 20 19 18 17 15 17 17 17 19 11 23 27 22 23 28 27 28 29
41 41 41 40 40 38 35 35 30 25 21 21 20 19 19 18 18 15 14 15 17 21 20 14 14 14 14 21 23 20 19 21 22 19 19 19 23 22 22 23 23 26 28 29
42 42 41 40 40 37 35 36 35 27 22 22 25 19 17 14 14 14 16 23 23 21 19 19 13 7 13 15 19 25 27 27 24 22 17 13 19 22 26 25 19 27 29 28
42 42 41 40 40 37 35 35 36 28 24 28 27 19 19 19 17 15 23 22 19 22 18 16 15 14 19 17 15 19 22 21 20 21 19 21 25 25 25 20 17 28 30 30
42 42 42 41 40 36 35 35 37 29 27 30 30 30 24 22 19 16 22 21 22 20 17 18 19 19 20 18 22 20 18 18 18 19 18 11 27 24 19 25 27 29 30 31
42 43 43 42 41 36 34 33 38 36 28 29 32 29 29 28 25 23 25 22 23 24 23 24 22 20 20 18 13 23 19 21 16 20 18 28 28 26 27 29 28 29 30 32
43 43 43 42 40 37 37 35 36 31 25 22 22 21 26 30 29 27 22 26 28 29 26 23 22 17 21 14 17 20 18 28 24 23 24 28 28 28 28 28 31 30 32 31
42 42 42 42 40 38 36 35 37 32 27 19 22 29 26 28 29 26 26 27 29 30 27 24 22 17 23 19 19 18 17 23 23 24 27 29 29 29 28 28 30 31 30 31
42 42 42 42 40 38 36 36 38 37 25 22 24 27 27 28 27 25 26 24 24 24 24 24 21 24 22 22 23 20 23 20 20 17 26 25 28 29 28 28 29 32 28 27
42 41 41 41 40 35 29 25 29 37 34 24 16 27 25 27 27 24 24 25 25 25 23 23 25 26 21 17 18 21 30 31 26 26 29 28 29 28 29 28 30 30 27 27
42 41 41 41 37 33 26 23 30 37 34 24 18 20 27 28 27 27 26 28 27 25 25 25 24 23 24 22 18 21 30 30 29 30 30 28 25 26 27 29 28 26 25 24
42 42 41 37 37 35 33 37 40 35 31 27 20 20 25 30 26 25 30 28 29 29 26 27 25 25 23 20 21 25 30 29 25 29 27 25 26 24 23 23 23 22 21 22
43 41 36 32 31 32 36 38 35 34 27 22 22 18 21 32 30 29 28 28 26 27 26 25 25 23 22 24 27 29 30 25 19 18 18 20 22 20 20 20 19 19 19 19
38 34 29 26 30 38 36 30 26 25 25 28 20 23 23 31 27 26 24 25 22 21 24 27 24 22 23 21 19 18 18 19 19 18 17 17 17 20 18 17 18 18 17 18
34 30 27 31 38 31 27 23 21 22 19 24 24 23 24 32 26 24 24 24 23 20 22 23 23 22 23 19 17 17 18 19 18 17 15 15 16 17 16 15 16 15 15 17
34 34 37 35 30 25 19 19 21 22 16 23 22 23 24 30 33 27 26 24 24 20 28 25 21 19 20 19 20 20 16 15 15 15 14 13 14 15 15 15 15 15 16 16
33 30 28 23 23 17 15 14 17 19 22 22 24 22 23 30 31 28 26 23 21 26 24 20 18 20 21 21 18 16 15 15 14 15 15 14 13 14 15 15 15 16 15 15
26 24 20 14 17 17 17 17 17 21 21 23 24 22 23 28 25 28 22 22 25 20 18 18 18 19 20 20 19 19 17 14 13 13 15 14 13 13 12 13 14 12 12 13
23 18 13 17 17 21 21 22 23 27 27 26 26 26 27 26 24 24 20 21 18 19 19 18 21 22 21 20 20 18 15 12 10 10 11 12 12 11 11 12 11 11 11 11
24 22 20 23 24 24 26 26 26 29 30 30 29 27 24 23 21 20 18 17 17 19 19 20 22 21 20 18 17 16 15 14 12 11 11 11 11 12 13 10 12 11 11 12
22 21 23 24 22 23 24 28 28 30 29 24 27 23 19 23 22 20 22 21 18 19 20 20 19 18 17 17 16 15 14 13 13 13 12 13 12 11 14 13 12 11 13 13

GFSNW_sfc_30mbdewp_132.txt.gz
Dewpoint
47 46 45 44 42 39 37 34 28 41 40 29 30 25 22 15 16 17 15 15 14 13 14 12 12 12 14 17 17 11 18 17 11 8 13 17 17 13 18 19 16 21 21 17
45 45 43 41 39 38 37 33 33 38 38 24 26 26 23 17 14 15 15 16 17 17 14 11 14 14 17 15 14 12 17 13 6 -3 4 9 12 13 15 18 24 21 18 15
42 42 40 39 39 41 39 33 28 32 34 30 25 22 14 16 18 17 17 17 15 14 12 15 16 16 17 16 21 23 20 15 6 -8 -7 9 10 12 16 25 20 22 20 22
41 41 40 37 41 42 38 33 27 27 24 25 27 19 16 16 13 15 13 12 14 13 12 14 14 14 14 16 23 17 12 3 15 15 14 15 14 14 24 23 23 21 22 23
41 40 38 39 41 41 33 29 24 29 20 27 26 23 18 16 18 16 14 13 15 14 12 12 12 14 12 11 16 14 16 2 14 14 14 15 16 23 23 23 27 23 23 21
39 39 37 39 41 36 31 32 30 24 26 27 22 21 20 17 17 20 17 15 15 14 14 15 15 15 15 15 13 13 12 12 16 12 16 18 20 20 22 22 25 25 21 26
39 39 39 40 39 38 34 33 29 22 21 23 19 21 19 16 16 16 17 17 14 18 20 20 19 19 18 18 17 15 15 17 17 17 20 11 19 23 22 21 26 27 27 29
39 39 40 40 38 38 35 35 28 25 20 21 23 20 21 20 18 17 16 16 19 21 18 13 11 14 16 22 21 18 17 19 20 17 19 19 24 24 21 21 23 26 26 28
41 40 40 40 37 37 35 35 33 26 21 22 24 18 17 15 14 15 20 23 23 21 19 17 7 7 12 16 23 24 20 24 25 22 17 11 18 23 26 25 19 26 27 27
41 40 40 39 38 38 35 35 36 28 26 29 25 17 16 18 17 18 22 20 19 22 17 15 12 11 19 15 16 21 24 23 21 21 17 19 24 25 26 19 18 27 28 29
41 40 40 38 38 37 35 34 37 29 28 29 30 29 22 19 20 18 23 20 21 20 15 16 18 18 20 19 21 20 17 16 17 20 18 11 26 22 16 24 27 28 29 30
42 42 41 38 37 36 35 30 36 35 29 28 32 29 29 25 23 24 24 22 23 23 21 23 22 21 19 17 12 23 17 19 16 19 14 25 27 25 26 27 28 29 29 31
42 42 41 38 39 37 35 34 34 28 23 22 24 23 27 29 27 27 23 26 29 27 26 22 21 14 20 15 16 19 20 27 23 22 21 27 28 27 28 27 28 31 31 32
42 42 42 40 39 38 36 34 36 29 25 21 22 29 25 29 27 27 28 29 30 29 27 22 20 13 22 18 18 18 18 25 24 24 25 28 29 29 28 27 29 30 32 30
41 42 41 39 39 38 36 37 38 35 21 20 23 26 28 29 27 26 26 25 25 25 23 22 18 23 22 22 22 19 21 15 15 13 21 24 27 29 28 27 30 29 27 26
42 42 41 38 36 32 28 25 29 37 32 19 19 26 27 28 26 25 24 25 25 25 23 22 24 26 21 17 17 20 23 28 23 24 28 27 29 27 28 27 30 28 25 25
42 42 41 37 35 33 26 26 29 37 32 20 18 23 27 27 27 28 26 28 26 25 25 23 23 23 24 21 18 19 27 31 30 30 30 27 25 25 28 27 26 25 23 23
41 42 38 38 37 36 35 39 37 34 28 24 19 23 26 30 24 25 29 27 28 28 26 27 25 24 23 19 21 23 29 29 28 28 27 25 25 23 22 22 22 21 20 20
41 38 35 31 31 33 36 36 32 32 25 21 20 21 21 31 28 28 28 27 23 27 26 25 26 23 21 23 26 28 27 24 20 20 23 22 21 20 19 19 19 18 18 18
37 31 26 24 33 38 35 27 26 24 24 26 20 23 25 28 27 25 25 26 23 20 23 27 24 22 21 19 19 19 20 20 19 19 19 18 19 20 18 17 17 17 16 17
34 28 26 31 37 29 24 22 19 21 17 23 23 23 26 32 23 23 22 22 21 19 20 22 22 21 22 18 18 21 22 20 17 17 15 16 17 17 16 15 16 14 15 16
32 34 36 34 27 21 17 18 21 20 15 22 20 22 26 30 32 26 25 23 23 18 27 23 19 19 20 19 21 18 16 16 15 14 13 13 15 15 15 15 15 15 16 16
32 30 27 23 21 15 11 11 16 18 22 23 24 21 26 30 29 26 24 21 20 26 22 19 18 19 21 21 17 15 15 15 15 14 13 13 13 14 15 13 14 14 13 14
28 24 19 15 16 15 15 14 15 19 22 23 22 21 21 27 23 26 22 22 23 19 17 17 17 19 21 19 18 17 15 14 14 15 14 13 12 11 12 12 12 10 12 12
25 21 13 15 16 20 18 21 22 25 24 24 25 26 26 26 24 25 21 21 16 17 16 18 18 20 20 19 19 16 12 10 9 12 11 10 10 11 11 10 10 11 10 10
23 22 20 21 22 22 24 24 25 28 27 28 27 25 23 21 21 20 18 16 14 16 19 19 21 20 19 19 17 14 12 11 10 10 10 10 11 12 12 10 11 10 10 10
21 21 24 22 21 22 24 25 26 30 27 22 25 22 20 23 19 17 21 18 18 19 20 21 19 19 17 16 15 14 13 12 13 12 12 12 11 10 12 13 11 11 12 12

GFSNW_sfc_30mbdewp_135.txt.gz
Dewpoint
51 50 50 49 48 43 40 35 30 38 43 30 31 26 20 21 17 17 15 15 14 13 13 12 12 14 14 19 18 13 19 16 8 7 12 15 16 15 20 16 16 19 17 14
52 51 49 48 44 42 38 33 31 38 36 25 26 28 21 20 17 15 16 15 17 18 14 11 15 14 18 17 15 17 20 14 1 3 9 13 15 13 15 18 20 18 18 12
52 50 48 44 42 41 37 33 27 32 34 33 28 24 20 17 19 18 18 18 16 14 14 18 16 15 17 16 20 23 18 15 5 -12 -6 8 9 13 14 24 20 19 17 21
46 44 43 42 42 40 37 33 29 31 26 29 26 24 21 15 14 15 15 15 14 13 14 16 16 16 16 19 23 17 15 9 15 12 9 10 10 12 16 24 21 21 20 21
42 43 44 43 43 42 36 30 29 29 27 29 25 25 20 13 17 15 15 14 16 15 12 13 14 14 14 15 17 13 16 -1 12 10 11 12 13 17 23 22 24 24 22 20
39 41 41 41 41 39 35 33 30 28 29 30 27 25 19 16 17 19 18 18 17 15 16 18 19 16 15 16 14 13 10 10 15 10 17 18 18 21 21 21 24 25 21 25
40 40 40 41 41 39 35 34 31 27 26 28 25 22 18 17 17 16 20 17 14 20 21 20 19 19 17 16 15 15 15 16 16 15 20 12 19 22 22 21 24 26 25 25
40 41 40 40 40 39 35 35 27 25 26 24 22 19 21 21 19 18 17 19 21 22 17 11 13 16 19 20 18 16 19 18 20 17 18 19 26 26 19 19 22 25 24 25
38 40 40 39 38 38 35 35 35 27 23 24 24 19 17 16 15 18 21 23 24 21 19 14 9 11 16 19 23 21 20 26 24 21 16 11 18 23 25 25 18 25 26 25
39 40 39 40 38 38 35 34 35 29 26 30 24 17 16 19 20 18 20 20 18 22 18 14 11 12 19 17 20 22 20 19 18 19 17 18 24 25 26 18 18 26 28 27
40 38 40 40 39 37 33 33 36 28 28 28 29 28 19 21 22 16 22 18 20 19 15 15 18 18 20 20 21 21 20 20 19 21 18 12 26 23 20 23 26 28 28 28
40 39 38 36 36 37 33 28 34 33 28 27 31 29 29 25 25 24 25 22 22 21 20 23 23 22 20 18 17 24 16 19 18 19 17 24 26 25 27 27 26 29 29 29
41 39 40 40 39 36 32 30 33 27 25 25 26 25 28 28 27 28 22 26 28 25 27 23 22 15 21 17 16 21 22 26 22 21 23 27 28 27 28 27 27 30 31 30
41 40 40 39 39 38 35 34 35 27 26 22 23 28 28 29 30 30 30 30 30 29 27 22 20 17 22 18 18 20 20 26 25 24 24 28 28 28 28 27 29 30 30 28
40 40 40 39 38 36 35 36 37 34 21 22 23 27 29 29 28 28 28 27 26 25 22 20 19 23 21 22 22 19 21 18 18 16 20 24 27 29 28 28 29 28 26 25
40 40 38 36 33 31 28 23 31 34 29 22 21 27 27 27 27 27 26 26 25 25 23 23 25 26 21 18 17 19 22 24 21 24 28 29 29 28 28 28 28 26 24 24
40 39 38 39 38 37 30 26 31 36 29 22 21 25 28 28 28 28 27 29 27 25 25 23 23 24 23 21 17 19 24 30 30 30 29 27 27 27 28 27 26 24 22 22
39 39 39 39 38 36 33 37 35 32 26 24 22 24 26 29 25 26 29 27 27 28 26 27 24 25 24 19 21 22 29 29 29 28 27 26 25 24 23 22 21 20 19 19
38 37 34 32 33 32 32 36 33 31 25 19 21 21 22 30 28 29 27 27 23 27 26 25 25 23 20 21 27 28 27 26 24 25 24 23 22 20 19 19 18 17 16 17
34 29 25 28 34 36 31 26 23 22 24 23 22 24 25 28 27 25 25 26 23 20 23 27 24 20 21 20 21 21 21 21 21 20 20 20 20 19 17 16 16 15 15 15
32 27 28 34 36 27 23 20 19 19 16 22 23 26 26 31 22 23 23 22 22 18 21 22 21 21 23 19 21 22 20 19 18 18 16 16 17 16 16 15 14 14 15 15
31 35 35 30 24 19 16 18 21 18 14 22 21 24 28 31 30 24 25 22 23 18 26 22 19 20 20 20 21 18 16 15 14 14 14 14 15 14 14 14 14 15 15 15
32 28 25 20 21 12 8 9 15 16 21 23 23 22 28 30 28 25 23 20 19 27 22 17 19 19 20 21 17 16 16 15 14 13 12 12 13 14 13 12 12 14 13 13
25 22 18 14 14 13 13 14 15 20 23 23 22 22 23 26 24 23 20 22 23 18 17 17 18 20 21 19 17 16 15 16 16 14 12 12 11 12 11 11 11 12 12 12
22 18 12 14 16 19 18 21 23 25 24 24 25 26 26 24 22 24 22 20 16 17 16 18 18 21 20 19 18 15 13 12 13 11 10 10 11 11 10 10 11 10 10 11
24 21 18 19 20 20 22 22 24 27 25 27 26 25 22 21 22 21 17 15 13 15 19 18 20 20 19 19 17 12 10 11 11 11 11 11 10 10 11 10 11 10 10 10
21 20 22 20 18 20 22 23 25 29 25 22 24 21 18 22 19 17 18 16 17 18 20 21 20 19 18 16 13 12 11 10 11 11 11 12 11 11 12 12 12 12 11 11

GFSNW_sfc_30mbdewp_138.txt.gz
Dewpoint
44 44 44 44 43 43 44 39 32 41 42 30 30 29 32 27 21 15 16 15 14 8 8 8 12 15 13 16 16 11 20 11 6 4 11 13 13 13 15 15 14 14 14 11
43 44 43 42 42 43 43 36 32 41 38 28 27 31 29 26 23 15 14 14 14 11 10 10 13 14 18 16 14 16 16 9 -2 1 10 17 12 13 12 16 19 15 13 7
42 42 42 42 45 46 42 34 26 30 34 35 28 30 29 24 25 23 22 20 17 15 12 15 14 15 18 17 15 24 18 14 11 0 8 10 10 8 9 18 19 13 11 13
44 45 46 49 50 46 39 34 28 29 26 29 32 29 27 24 22 25 24 20 15 14 14 14 13 16 18 21 25 19 17 12 14 3 -2 0 1 5 10 19 22 20 14 17
47 51 49 48 46 43 36 32 28 29 26 29 31 30 29 26 25 23 21 17 16 16 15 13 14 14 13 15 17 15 15 2 5 -4 -3 -1 -1 8 16 19 22 19 17 17
40 41 45 45 44 41 35 37 32 28 27 30 28 27 27 24 26 24 21 19 20 18 18 16 16 16 16 18 14 12 9 2 2 -1 10 12 14 17 20 25 21 23 21 27
40 41 41 41 41 40 38 34 31 30 27 29 26 26 27 25 23 25 24 22 20 22 21 19 18 18 17 17 15 13 6 2 10 10 16 11 22 21 20 21 24 25 25 26
40 41 41 41 40 39 37 38 34 32 28 28 28 26 24 24 27 25 23 23 21 22 16 13 11 12 11 13 13 13 10 11 16 14 9 16 23 23 21 16 19 25 25 26
41 42 42 42 40 40 38 38 39 34 30 29 30 30 29 27 25 24 24 23 24 21 14 10 7 8 4 11 18 15 15 20 18 17 11 6 19 22 22 22 19 25 26 25
42 41 41 40 40 40 38 37 40 34 29 32 31 28 25 22 19 18 20 19 18 20 14 11 8 9 13 14 15 15 13 17 18 14 13 16 23 22 25 18 22 25 28 26
41 40 40 40 37 36 34 35 38 34 30 30 28 24 22 20 19 16 20 17 20 17 14 8 14 14 16 17 17 19 18 17 17 15 13 11 23 24 20 24 25 27 27 26
40 39 41 40 38 35 36 31 34 33 28 28 30 30 29 25 20 21 26 20 19 18 14 18 19 20 21 18 18 24 18 18 17 17 17 25 24 24 27 27 26 27 27 27
39 40 40 39 36 33 32 33 32 29 28 26 25 26 30 31 29 28 21 26 27 29 30 25 23 19 19 16 18 21 23 24 19 19 24 24 26 27 27 27 26 28 28 27
39 41 40 38 38 36 33 33 37 30 28 26 26 28 29 32 32 32 30 31 30 29 25 24 21 18 22 18 19 21 24 25 26 20 22 26 27 27 28 27 28 28 29 26
41 40 38 37 36 34 33 35 36 35 26 25 24 26 28 30 30 29 29 27 24 21 23 22 19 19 18 20 17 21 23 28 21 17 22 20 25 29 29 28 28 27 26 25
39 39 39 37 33 32 27 28 28 33 28 28 23 28 26 27 28 28 27 27 26 25 25 22 22 25 18 14 8 18 23 26 30 29 30 31 31 29 28 28 28 27 26 24
40 39 39 38 36 36 32 28 32 35 33 29 23 23 26 28 25 27 26 28 28 25 24 22 20 20 20 15 7 17 23 30 30 32 32 29 29 28 29 28 27 25 21 21
40 39 38 38 37 34 29 34 34 35 30 29 22 24 23 28 24 23 28 25 25 27 23 24 19 21 20 14 16 21 27 29 30 29 29 30 29 28 27 25 23 21 19 18
37 35 36 36 35 32 32 36 35 33 29 24 25 18 19 29 28 27 26 25 23 27 22 21 20 19 15 16 20 25 26 26 27 26 26 26 24 22 21 21 19 18 16 16
32 32 32 30 34 36 32 29 28 28 27 27 24 26 24 26 25 27 25 26 22 20 22 24 21 17 24 24 26 26 26 25 26 24 22 23 22 21 19 17 16 15 15 15
33 32 30 34 36 28 26 24 22 21 20 23 26 24 23 30 22 24 26 24 23 17 20 20 20 20 24 24 25 24 23 23 23 22 21 20 20 18 17 15 14 14 14 16
34 34 34 31 25 23 19 20 20 17 15 23 24 27 27 31 30 26 26 22 22 18 24 21 18 25 23 23 22 21 20 19 17 17 16 15 14 14 14 14 14 15 16 16
31 28 25 22 22 15 12 11 16 17 22 26 26 26 28 29 28 25 23 20 20 25 21 18 21 23 22 22 20 19 17 16 15 13 13 13 14 14 14 14 15 15 15 16
26 23 16 19 17 16 17 16 17 24 25 25 25 25 24 26 26 25 21 23 23 19 18 19 25 23 22 21 20 18 17 17 16 13 12 13 13 12 13 14 14 15 14 14
24 20 16 17 21 22 24 26 25 26 26 24 23 25 23 24 24 24 23 21 17 17 18 25 25 23 22 21 20 19 18 17 15 14 13 13 13 12 13 13 13 14 14 13
24 22 20 22 21 22 25 26 26 26 28 28 27 25 23 23 21 19 19 17 15 20 25 25 24 22 22 21 20 17 16 15 14 13 13 13 13 13 12 13 13 13 13 12
21 22 24 24 24 24 27 27 26 29 29 26 26 22 20 25 19 18 19 20 24 26 25 24 24 23 22 20 17 14 14 14 14 14 14 14 14 13 13 13 14 14 14 13